ACA1121 CYXU-KBDL

Flight info

Callsign ACA1121
Flight time N/A
Altitude 39000
Route LOPVO Q830 COLTS DCT IKNAV Q935 AUDIL STELA1
Aircraft A20N/M-SDE2E3FGHIRWXY/LB1

Departure

Time 2026-04-24 20:05
Airport London International Airport (CYXU)

Arrival

Time N/A
Airport Bradley International Airport (KBDL)
Time Latitude Longitude Altitude Speed Heading
2026-04-24 19:40 43.02917 -81.14823 902 ft 0 kts 286°
2026-04-24 19:58 43.02915 -81.14814 902 ft 9 kts 287°
2026-04-24 19:58 43.02888 -81.14731 902 ft 4 kts 288°
2026-04-24 19:59 43.02884 -81.14714 902 ft 0 kts 319°
2026-04-24 20:00 43.02895 -81.14727 902 ft 11 kts 319°
2026-04-24 20:00 43.02996 -81.14846 900 ft 25 kts 319°
2026-04-24 20:00 43.03073 -81.14937 902 ft 11 kts 318°
2026-04-24 20:01 43.03151 -81.15031 902 ft 20 kts 319°
2026-04-24 20:01 43.03251 -81.15147 905 ft 16 kts 321°
2026-04-24 20:01 43.03350 -81.15265 906 ft 22 kts 319°
2026-04-24 20:01 43.03455 -81.15389 907 ft 21 kts 319°
2026-04-24 20:02 43.03524 -81.15472 905 ft 20 kts 315°
2026-04-24 20:02 43.03670 -81.15655 904 ft 22 kts 315°
2026-04-24 20:02 43.03794 -81.15800 904 ft 21 kts 320°
2026-04-24 20:02 43.03892 -81.15914 906 ft 13 kts 321°
2026-04-24 20:03 43.03974 -81.16005 908 ft 6 kts 332°
2026-04-24 20:03 43.03987 -81.16013 909 ft 9 kts 337°
2026-04-24 20:03 43.04019 -81.16016 910 ft 0 kts
2026-04-24 20:03 43.04023 -81.16016 910 ft 2 kts
2026-04-24 20:04 43.04070 -81.16009 912 ft 14 kts 13°
2026-04-24 20:04 43.04138 -81.15913 913 ft 11 kts 91°
2026-04-24 20:04 43.04127 -81.15882 915 ft 1 kts 140°
2026-04-24 20:04 43.04004 -81.15733 909 ft 66 kts 139°
2026-04-24 20:05 43.03470 -81.15084 915 ft 137 kts 138°
2026-04-24 20:05 43.02659 -81.14156 1337 ft 166 kts 138°
2026-04-24 20:05 43.01695 -81.13044 2222 ft 198 kts 136°
2026-04-24 20:05 43.00503 -81.11608 3165 ft 257 kts 137°